sat.trackr.live / text

‹ back to catalog

2025-313AJ

NORAD 67280 · 2025-313AJ

PAYLOAD ACTIVE UNKNOWN

§ Identity

Operator
Country
TBD
Launch date
2025-12-28
Launch site
VOSTO
Launch vehicle
Mass (kg)
RCS (m²)

External: N2YO · Heavens-Above · Gunter

§ Orbital elements

Epoch: 2026-09-20T22:46:25.967424Z

Period
94.54 min
Inclination
97.3918°
Eccentricity
0.0013609
Mean motion
15.23209638 rev/d
Perigee alt
486.8 km
Apogee alt
505.5 km
Semi-major
6,874.3 km
B*
1.3610e-4
RAAN
337.2358°
Arg perigee
31.7688°
Mean anomaly
328.4367°
Rev number
4,052

§ Raw data

2025-313AJ1 67280U 25313AJ  26263.94891166  .00003156  00000+0  13610-3 0  99982 67280  97.3918 337.2358 0013609  31.7688 328.4367 15.23209638 40528

JSON: /api/v1/satellites/67280 · /tle

For live sub-satellite position, see the globe view (requires WebGL).

§ Visibility from observer

Set your observer location to see the next 7 days of passes ≥ 10°. The values pass through the URL so the page stays shareable.

No JS? Fill the form by hand. The geolocation button needs JavaScript.